Time,TemperatureF,DewpointF,PressureIn,WindDirection,WindDirectionDegrees,WindSpeedMPH,WindSpeedGustMPH,Humidity,HourlyPrecipIn,Conditions,Clouds,dailyrainin,SoftwareType,DateUTC
2013-11-27 00:02:00,57.0,40.0,30.01,SE,137,0.0,0.0,52,0.00,,,0.00,,2013-11-27 08:02:00,
2013-11-27 00:21:00,56.0,39.0,30.00,SE,138,1.0,2.0,53,0.00,,,0.00,,2013-11-27 08:21:00,
2013-11-27 00:32:00,56.0,39.0,30.00,SE,138,1.0,2.0,53,0.00,,,0.00,,2013-11-27 08:32:00,
2013-11-27 00:52:00,55.0,39.0,29.99,SE,138,0.0,2.0,54,0.00,,,0.00,,2013-11-27 08:52:00,
2013-11-27 01:02:00,55.0,39.0,29.99,SE,138,0.0,2.0,54,0.00,,,0.00,,2013-11-27 09:02:00,
2013-11-27 01:21:00,55.0,39.0,29.99,SE,138,0.0,2.0,55,0.00,,,0.00,,2013-11-27 09:21:00,
2013-11-27 01:33:00,55.0,39.0,29.99,SE,138,0.0,2.0,55,0.00,,,0.00,,2013-11-27 09:33:00,
2013-11-27 01:54:00,55.0,40.0,29.98,SE,138,0.0,1.0,56,0.00,,,0.00,,2013-11-27 09:54:00,
2013-11-27 02:03:00,55.0,40.0,29.98,SE,138,0.0,1.0,56,0.00,,,0.00,,2013-11-27 10:03:00,
2013-11-27 02:22:00,55.0,40.0,29.98,SE,138,0.0,1.0,56,0.00,,,0.00,,2013-11-27 10:22:00,
2013-11-27 02:33:00,55.0,40.0,29.98,SE,138,0.0,1.0,56,0.00,,,0.00,,2013-11-27 10:33:00,
2013-11-27 02:53:00,54.0,39.0,29.97,SE,138,0.0,0.0,57,0.00,,,0.00,,2013-11-27 10:53:00,
2013-11-27 03:02:00,54.0,39.0,29.97,SE,138,0.0,0.0,57,0.00,,,0.00,,2013-11-27 11:02:00,
2013-11-27 03:22:00,54.0,40.0,29.96,SE,138,0.0,1.0,59,0.00,,,0.00,,2013-11-27 11:22:00,
2013-11-27 03:33:00,54.0,40.0,29.96,SE,138,0.0,1.0,59,0.00,,,0.00,,2013-11-27 11:33:00,
2013-11-27 03:53:00,53.0,39.0,29.96,SE,138,0.0,1.0,60,0.00,,,0.00,,2013-11-27 11:53:00,
2013-11-27 04:02:00,53.0,39.0,29.96,SE,138,0.0,1.0,60,0.00,,,0.00,,2013-11-27 12:02:00,
2013-11-27 04:21:00,51.0,38.0,29.95,SE,138,0.0,2.0,61,0.00,,,0.00,,2013-11-27 12:21:00,
2013-11-27 04:31:00,51.0,38.0,29.95,SE,138,0.0,2.0,61,0.00,,,0.00,,2013-11-27 12:31:00,
2013-11-27 04:52:00,51.0,38.0,29.95,SE,138,0.0,2.0,62,0.00,,,0.00,,2013-11-27 12:52:00,
2013-11-27 05:22:00,50.0,38.0,29.94,SE,138,0.0,1.0,62,0.00,,,0.00,,2013-11-27 13:22:00,
2013-11-27 05:32:00,50.0,38.0,29.94,SE,138,0.0,1.0,62,0.00,,,0.00,,2013-11-27 13:32:00,
2013-11-27 05:52:00,49.0,37.0,29.94,SE,138,1.0,2.0,63,0.00,,,0.00,,2013-11-27 13:52:00,
2013-11-27 06:02:00,49.0,37.0,29.94,SE,138,1.0,2.0,63,0.00,,,0.00,,2013-11-27 14:02:00,
2013-11-27 06:21:00,49.0,37.0,29.94,SE,138,0.0,0.0,64,0.00,,,0.00,,2013-11-27 14:21:00,
2013-11-27 06:32:00,49.0,37.0,29.94,SE,138,0.0,0.0,64,0.00,,,0.00,,2013-11-27 14:32:00,
2013-11-27 06:53:00,49.0,38.0,29.95,SE,138,0.0,0.0,65,0.00,,,0.00,,2013-11-27 14:53:00,
2013-11-27 07:02:00,49.0,38.0,29.95,SE,138,0.0,0.0,65,0.00,,,0.00,,2013-11-27 15:02:00,
2013-11-27 07:21:00,49.0,37.0,29.95,SE,138,1.0,2.0,64,0.00,,,0.00,,2013-11-27 15:21:00,
2013-11-27 07:33:00,49.0,37.0,29.95,SE,138,1.0,2.0,64,0.00,,,0.00,,2013-11-27 15:33:00,
2013-11-27 07:44:00,49.0,37.0,29.95,SE,138,1.0,2.0,64,0.00,,,0.00,,2013-11-27 15:44:00,
2013-11-27 07:53:00,51.0,38.0,29.96,SE,137,0.0,0.0,61,0.00,,,0.00,,2013-11-27 15:53:00,
2013-11-27 08:04:00,51.0,38.0,29.96,SE,137,0.0,0.0,61,0.00,,,0.00,,2013-11-27 16:04:00,
2013-11-27 08:23:00,54.0,40.0,29.95,SE,138,0.0,1.0,59,0.00,,,0.00,,2013-11-27 16:23:00,
2013-11-27 08:33:00,54.0,40.0,29.95,SE,138,0.0,1.0,59,0.00,,,0.00,,2013-11-27 16:33:00,
2013-11-27 08:43:00,54.0,40.0,29.95,SE,138,0.0,1.0,59,0.00,,,0.00,,2013-11-27 16:43:00,
2013-11-27 08:53:00,57.0,36.0,29.94,SE,138,0.0,2.0,46,0.00,,,0.00,,2013-11-27 16:53:00,
2013-11-27 09:02:00,57.0,36.0,29.94,SE,138,0.0,2.0,46,0.00,,,0.00,,2013-11-27 17:02:00,
2013-11-27 09:22:00,60.0,39.0,29.94,SE,138,0.0,0.0,46,0.00,,,0.00,,2013-11-27 17:22:00,
2013-11-27 09:33:00,60.0,39.0,29.94,SE,138,0.0,0.0,46,0.00,,,0.00,,2013-11-27 17:33:00,
2013-11-27 09:42:00,60.0,39.0,29.94,SE,138,0.0,0.0,46,0.00,,,0.00,,2013-11-27 17:42:00,
2013-11-27 09:52:00,61.0,41.0,29.95,SE,137,0.0,0.0,48,0.00,,,0.00,,2013-11-27 17:52:00,
2013-11-27 10:02:00,61.0,41.0,29.95,SE,137,0.0,0.0,48,0.00,,,0.00,,2013-11-27 18:02:00,
2013-11-27 10:12:00,61.0,41.0,29.95,SE,137,0.0,0.0,48,0.00,,,0.00,,2013-11-27 18:12:00,
2013-11-27 10:22:00,62.0,37.0,29.94,SE,137,1.0,3.0,40,0.00,,,0.00,,2013-11-27 18:22:00,
2013-11-27 10:32:00,62.0,37.0,29.94,SE,137,1.0,3.0,40,0.00,,,0.00,,2013-11-27 18:32:00,
2013-11-27 10:43:00,62.0,37.0,29.94,SE,137,1.0,3.0,40,0.00,,,0.00,,2013-11-27 18:43:00,
2013-11-27 10:52:00,65.0,37.0,29.94,SE,137,0.0,2.0,35,0.00,,,0.00,,2013-11-27 18:52:00,
2013-11-27 11:01:00,65.0,37.0,29.94,SE,137,0.0,2.0,35,0.00,,,0.00,,2013-11-27 19:01:00,
2013-11-27 11:21:00,69.0,34.0,29.91,ENE,66,1.0,6.0,27,0.00,,,0.00,,2013-11-27 19:21:00,
2013-11-27 11:32:00,69.0,34.0,29.91,ENE,66,1.0,6.0,27,0.00,,,0.00,,2013-11-27 19:32:00,
2013-11-27 11:42:00,69.0,34.0,29.91,ENE,66,1.0,6.0,27,0.00,,,0.00,,2013-11-27 19:42:00,
2013-11-27 11:52:00,71.0,32.0,29.90,NNE,30,0.0,3.0,24,0.00,,,0.00,,2013-11-27 19:52:00,
2013-11-27 12:02:00,71.0,32.0,29.90,NNE,30,0.0,3.0,24,0.00,,,0.00,,2013-11-27 20:02:00,
2013-11-27 12:22:00,73.0,30.0,29.88,NE,38,5.0,7.0,20,0.00,,,0.00,,2013-11-27 20:22:00,
2013-11-27 12:31:00,73.0,30.0,29.88,NE,38,5.0,7.0,20,0.00,,,0.00,,2013-11-27 20:31:00,
2013-11-27 12:52:00,73.0,28.0,29.86,ESE,102,0.0,7.0,19,0.00,,,0.00,,2013-11-27 20:52:00,
2013-11-27 13:02:00,73.0,28.0,29.86,ESE,102,0.0,7.0,19,0.00,,,0.00,,2013-11-27 21:02:00,
2013-11-27 13:21:00,77.0,32.0,29.85,North,7,2.0,5.0,19,0.00,,,0.00,,2013-11-27 21:21:00,
2013-11-27 13:33:00,77.0,32.0,29.85,North,7,2.0,5.0,19,0.00,,,0.00,,2013-11-27 21:33:00,
2013-11-27 13:43:00,77.0,32.0,29.85,North,7,2.0,5.0,19,0.00,,,0.00,,2013-11-27 21:43:00,
2013-11-27 13:53:00,77.0,30.0,29.83,NW,315,1.0,3.0,18,0.00,,,0.00,,2013-11-27 21:53:00,
2013-11-27 14:03:00,77.0,30.0,29.83,NW,315,1.0,3.0,18,0.00,,,0.00,,2013-11-27 22:03:00,
2013-11-27 14:23:00,76.0,28.0,29.83,ENE,76,1.0,5.0,17,0.00,,,0.00,,2013-11-27 22:23:00,
2013-11-27 14:33:00,76.0,28.0,29.83,ENE,76,1.0,5.0,17,0.00,,,0.00,,2013-11-27 22:33:00,
2013-11-27 14:52:00,73.0,31.0,29.83,SSE,164,2.0,8.0,21,0.00,,,0.00,,2013-11-27 22:52:00,
2013-11-27 15:02:00,73.0,31.0,29.83,SSE,164,2.0,8.0,21,0.00,,,0.00,,2013-11-27 23:02:00,
2013-11-27 15:21:00,71.0,31.0,29.83,SSW,198,6.0,10.0,23,0.00,,,0.00,,2013-11-27 23:21:00,
2013-11-27 15:33:00,71.0,31.0,29.83,SSW,198,6.0,10.0,23,0.00,,,0.00,,2013-11-27 23:33:00,
2013-11-27 15:52:00,70.0,32.0,29.83,South,171,5.0,7.0,24,0.00,,,0.00,,2013-11-27 23:52:00,
2013-11-27 16:02:00,70.0,32.0,29.83,South,171,5.0,7.0,24,0.00,,,0.00,,2013-11-28 00:02:00,
2013-11-27 16:21:00,69.0,33.0,29.82,SSW,208,2.0,3.0,26,0.00,,,0.00,,2013-11-28 00:21:00,
2013-11-27 16:32:00,69.0,33.0,29.82,SSW,208,2.0,3.0,26,0.00,,,0.00,,2013-11-28 00:32:00,
2013-11-27 16:42:00,69.0,33.0,29.82,SSW,208,2.0,3.0,26,0.00,,,0.00,,2013-11-28 00:42:00,
2013-11-27 16:52:00,67.0,32.0,29.82,South,174,1.0,6.0,27,0.00,,,0.00,,2013-11-28 00:52:00,
2013-11-27 17:01:00,67.0,32.0,29.82,South,174,1.0,6.0,27,0.00,,,0.00,,2013-11-28 01:01:00,
2013-11-27 17:21:00,66.0,33.0,29.83,SSE,167,2.0,3.0,29,0.00,,,0.00,,2013-11-28 01:21:00,
2013-11-27 17:31:00,66.0,33.0,29.83,SSE,167,2.0,3.0,29,0.00,,,0.00,,2013-11-28 01:31:00,
2013-11-27 17:42:00,66.0,33.0,29.83,SSE,167,2.0,3.0,29,0.00,,,0.00,,2013-11-28 01:42:00,
2013-11-27 17:52:00,64.0,34.0,29.83,SSE,167,0.0,0.0,32,0.00,,,0.00,,2013-11-28 01:52:00,
2013-11-27 18:01:00,64.0,34.0,29.83,SSE,167,0.0,0.0,32,0.00,,,0.00,,2013-11-28 02:01:00,
2013-11-27 18:21:00,62.0,34.0,29.84,SSE,167,0.0,0.0,35,0.00,,,0.00,,2013-11-28 02:21:00,
2013-11-27 18:31:00,62.0,34.0,29.84,SSE,167,0.0,0.0,35,0.00,,,0.00,,2013-11-28 02:31:00,
2013-11-27 18:42:00,62.0,34.0,29.84,SSE,167,0.0,0.0,35,0.00,,,0.00,,2013-11-28 02:42:00,
2013-11-27 19:21:00,59.0,35.0,29.85,SSE,162,0.0,1.0,41,0.00,,,0.00,,2013-11-28 03:21:00,
2013-11-27 19:33:00,59.0,35.0,29.85,SSE,162,0.0,1.0,41,0.00,,,0.00,,2013-11-28 03:33:00,
2013-11-27 19:53:00,57.0,34.0,29.85,SSE,167,0.0,1.0,42,0.00,,,0.00,,2013-11-28 03:53:00,
2013-11-27 20:03:00,57.0,34.0,29.85,SSE,167,0.0,1.0,42,0.00,,,0.00,,2013-11-28 04:03:00,
2013-11-27 20:23:00,56.0,36.0,29.87,SSE,167,0.0,1.0,46,0.00,,,0.00,,2013-11-28 04:23:00,
2013-11-27 20:33:00,56.0,36.0,29.87,SSE,167,0.0,1.0,46,0.00,,,0.00,,2013-11-28 04:33:00,
2013-11-27 20:43:00,56.0,36.0,29.87,SSE,167,0.0,1.0,46,0.00,,,0.00,,2013-11-28 04:43:00,
2013-11-27 20:52:00,55.0,35.0,29.86,SSE,167,0.0,0.0,47,0.00,,,0.00,,2013-11-28 04:52:00,
2013-11-27 21:02:00,55.0,35.0,29.86,SSE,167,0.0,0.0,47,0.00,,,0.00,,2013-11-28 05:02:00,
2013-11-27 21:12:00,55.0,35.0,29.86,SSE,167,0.0,0.0,47,0.00,,,0.00,,2013-11-28 05:12:00,
2013-11-27 21:22:00,54.0,35.0,29.87,SSE,167,0.0,0.0,49,0.00,,,0.00,,2013-11-28 05:22:00,
2013-11-27 21:33:00,54.0,35.0,29.87,SSE,167,0.0,0.0,49,0.00,,,0.00,,2013-11-28 05:33:00,
2013-11-27 21:43:00,54.0,35.0,29.87,SSE,167,0.0,0.0,49,0.00,,,0.00,,2013-11-28 05:43:00,
2013-11-27 21:53:00,53.0,36.0,29.86,SSE,167,0.0,0.0,52,0.00,,,0.00,,2013-11-28 05:53:00,
2013-11-27 22:02:00,53.0,36.0,29.86,SSE,167,0.0,0.0,52,0.00,,,0.00,,2013-11-28 06:02:00,
2013-11-27 22:21:00,52.0,36.0,29.87,SSE,167,0.0,0.0,54,0.00,,,0.00,,2013-11-28 06:21:00,
2013-11-27 22:33:00,52.0,36.0,29.87,SSE,167,0.0,0.0,54,0.00,,,0.00,,2013-11-28 06:33:00,
2013-11-27 22:42:00,52.0,36.0,29.87,SSE,167,0.0,0.0,54,0.00,,,0.00,,2013-11-28 06:42:00,
2013-11-27 22:52:00,51.0,35.0,29.86,SSE,167,0.0,0.0,55,0.00,,,0.00,,2013-11-28 06:52:00,
2013-11-27 23:01:00,51.0,35.0,29.86,SSE,167,0.0,0.0,55,0.00,,,0.00,,2013-11-28 07:01:00,
2013-11-27 23:21:00,51.0,36.0,29.86,SSE,167,0.0,1.0,56,0.00,,,0.00,,2013-11-28 07:21:00,
2013-11-27 23:31:00,51.0,36.0,29.86,SSE,167,0.0,1.0,56,0.00,,,0.00,,2013-11-28 07:31:00,
2013-11-27 23:42:00,51.0,36.0,29.86,SSE,167,0.0,1.0,56,0.00,,,0.00,,2013-11-28 07:42:00,
2013-11-27 23:52:00,51.0,36.0,29.86,SSE,167,0.0,0.0,57,0.00,,,0.00,,2013-11-28 07:52:00,